Hourly Data Report for October 21, 2013

All times are specified in Local Standard Time (LST). Add 1 hour to adjust for Daylight Saving Time where and when it is observed.

HALL BEACH A
NUNAVUT

68°46'33.000" N
81°14'33.000" W
9.10 m
2402354
71293
YUX

Download Data

Hourly Data (October 2013)
Hourly Data Report for October 21, 2013
Temp Definition
°C
Dew Point Temp Definition
°C
Rel Hum Definition
%
Wind Dir Definition
10's deg

Wind Spd Definition
km/h
Visibility Definition
km
Stn Press Definition
kPa
Hmdx Definition


Wind Chill Definition


Weather Definition


TIME
00:00 Legend Double Dagger -4.9 -5.4 96 2 13 2.8 102.09   -10 LegendNANA
01:00 Legend Double Dagger -5.7 -6.2 96 33 15 1.2 102.10   -11 LegendNANA
02:00 Legend Double Dagger -6.5 -7.3 94 33 15 4.8 102.11   -12 LegendNANA
03:00 Legend Double Dagger -6.8 -7.6 94 33 17 1.0 102.11   -13 LegendNANA
04:00 Legend Double Dagger -5.1 -5.6 96 1 17 4.0 102.12   -11 LegendNANA
05:00 Legend Double Dagger -8.1 -9.0 93 32 13 1.2 102.14   -14 LegendNANA
06:00 Legend Double Dagger -9.9 -11.0 92 32 15 1.6 102.17   -17 LegendNANA
07:00 Legend Double Dagger -11.0 -12.2 91 33 18 16.1 102.16   -19 LegendNANA
08:00 Legend Double Dagger -12.4 -13.6 91 33 17 16.1 102.14   -20 LegendNANA
09:00 Legend Double Dagger -12.9 -14.1 91 33 18 16.1 102.12   -21 LegendNANA
10:00 Legend Double Dagger -11.7 -12.8 92 34 21 16.1 102.12   -20 LegendNANA
11:00 Legend Double Dagger -9.4 -10.1 95 35 18 16.1 102.11   -17 LegendNANA
12:00 Legend Double Dagger -8.6 -9.5 93 34 15 0.6 102.10   -15 LegendNANA
13:00 Legend Double Dagger -9.0 -10.1 92 33 18 12.9 102.10   -16 LegendNANA
14:00 Legend Double Dagger -10.1 -11.2 92 33 18 16.1 102.12   -18 LegendNANA
15:00 Legend Double Dagger -10.3 -11.4 92 33 21 16.1 102.12   -18 LegendNANA
16:00 Legend Double Dagger -11.1 -12.2 92 33 18 16.1 102.12   -19 LegendNANA
17:00 Legend Double Dagger -11.3 -12.4 92 34 18 16.1 102.11   -19 LegendNANA
18:00 Legend Double Dagger -10.8 -11.9 92 34 18 16.1 102.10   -18 LegendNANA
19:00 Legend Double Dagger -11.9 -13.1 91 35 17 16.1 102.09   -20 LegendNANA
20:00 Legend Double Dagger -6.9 -7.7 94 36 21 16.1 102.09   -14 LegendNANA
21:00 Legend Double Dagger -6.9 -7.7 94 36 22 16.1 102.08   -14 LegendNANA
22:00 Legend Double Dagger -7.5 -8.3 94 36 18 16.1 102.06   -14 LegendNANA
23:00 Legend Double Dagger -9.1 -11.0 86 35 15 16.1 102.05   -16 LegendNANA

Notes on Data Quality.

Legend

  • E = Estimated
  • M = Missing
  • NA = Not Available
  • ‡ = Partner data that is not subject to review by the National Climate Archives
Date modified: